San Bernardino, CA

7:32 AM PST on November 20, 2019 (GMT -0800)
San Bernardino International

Weather History for KSBD - May, 2019

Change the Weather History Date:

Saturday, May 25, 2019

  Actual Average Record
Temperature  
Mean Temperature 64 °F -  
Max Temperature 75 °F 81 °F 87 °F (2014)
Min Temperature 53 °F 53 °F 51 °F (2011)
Degree Days  
Heating Degree Days 1    
Growing Degree Days 14 (Base 50)    
Moisture  
Dew Point 47 °F    
Average Humidity 63    
Maximum Humidity 78    
Minimum Humidity 36    
Precipitation  
Precipitation 0.00 in - - ()
Sea Level Pressure  
Sea Level Pressure 29.89 in    
Wind  
Wind Speed 3 mph (WSW)    
Max Wind Speed 17 mph    
Max Gust Speed -    
Visibility 9 miles    
Events      
Averages and records for this station are not official NWS values.
T = Trace of Precipitation, MM = Missing Value Source: NWS Daily Summary

Daily Weather History Graph

Daily Weather History Graph

Search for Another Location

Airport or City:

Astronomy

May. 25, 2019 Rise Set
Actual Time 5:41 AM PDT 7:50 PM PDT
Civil Twilight 5:12 AM PDT 8:19 PM PDT
Nautical Twilight 4:38 AM PDT 8:53 PM PDT
Astronomical Twilight 4:01 AM PDT 9:31 PM PDT
Moon 12:57 AM PDT (5/25) 11:41 AM PDT (5/25)
Length of Visible Light 15h 06m
Length of Day
14h 09m
Waning Gibbous, 58% of the Moon is Illuminated
May 25
Waning Gibbous
May 26
Last Quarter
Jun 3
New
Jun 9
First Quarter
Jun 17
Full

Hourly Weather History & Observations

Time (PDT) Temp. Dew Point Humidity Pressure Visibility Wind Dir Wind Speed Gust Speed Precip Events Conditions
12:00 AM 59.9 °F 45.9 °F 60% 29.93 in 10.0 mi WSW 3.5 mph - N/A   Clear
12:20 AM 59.0 °F 45.7 °F 61% 29.92 in 10.0 mi WSW 4.6 mph - N/A   Clear
12:40 AM 58.1 °F 45.9 °F 64% 29.92 in 10.0 mi West 3.5 mph - N/A   Clear
1:00 AM 59.2 °F 45.7 °F 61% 29.92 in 10.0 mi Calm Calm - N/A   Clear
1:20 AM 59.0 °F 46.8 °F 64% 29.91 in 10.0 mi Calm Calm - N/A   Clear
1:40 AM 57.4 °F 48.2 °F 71% 29.91 in 10.0 mi Calm Calm - N/A   Clear
2:00 AM 56.7 °F 47.8 °F 72% 29.91 in 10.0 mi Calm Calm - N/A   Clear
2:20 AM 55.4 °F 48.4 °F 77% 29.91 in 10.0 mi Calm Calm - N/A   Clear
2:40 AM 55.9 °F 48.6 °F 76% 29.90 in 10.0 mi Calm Calm - N/A   Clear
3:00 AM 55.4 °F 48.0 °F 76% 29.90 in 10.0 mi Calm Calm - N/A   Clear
3:20 AM 55.2 °F 47.5 °F 75% 29.89 in 10.0 mi Calm Calm - N/A   Clear
3:40 AM 54.5 °F 47.5 °F 77% 29.89 in 10.0 mi Calm Calm - N/A   Clear
4:00 AM 53.8 °F 46.9 °F 78% 29.89 in 10.0 mi Calm Calm - N/A   Clear
4:20 AM 54.3 °F 46.9 °F 76% 29.88 in 10.0 mi Calm Calm - N/A   Clear
4:40 AM 53.2 °F 46.0 °F 77% 29.88 in 10.0 mi Calm Calm - N/A   Clear
5:00 AM 53.6 °F 46.4 °F 77% 29.88 in 10.0 mi Calm Calm - N/A   Clear
5:20 AM 53.1 °F 46.2 °F 78% 29.88 in 10.0 mi Calm Calm - N/A   Clear
5:40 AM 53.1 °F 46.4 °F 78% 29.88 in 10.0 mi Calm Calm - N/A   Clear
6:50 AM 53.6 °F 46.4 °F 77% 29.90 in 5.0 mi Calm Calm - N/A   Haze
7:48 AM 57.2 °F 48.2 °F 72% 29.91 in 5.0 mi Calm Calm - N/A   Haze
8:49 AM 59.0 °F 46.4 °F 63% 29.91 in 5.0 mi Calm Calm - N/A   Haze
9:49 AM 66.2 °F 46.4 °F 49% 29.91 in 5.0 mi Calm Calm - N/A   Haze
10:50 AM 68.0 °F 46.4 °F 46% 29.91 in 7.0 mi West 3.5 mph - N/A   Partly Cloudy
11:48 AM 71.6 °F 44.6 °F 38% 29.91 in 7.0 mi WSW 8.1 mph - N/A   Partly Cloudy
12:55 PM 73.4 °F 44.6 °F 36% 29.89 in 7.0 mi WSW 10.4 mph - N/A   Partly Cloudy
1:50 PM 75.2 °F 46.4 °F 36% 29.88 in 7.0 mi SW 5.8 mph - N/A   Partly Cloudy
2:55 PM 75.2 °F 46.4 °F 36% 29.85 in 7.0 mi West 11.5 mph - N/A   Scattered Clouds
3:50 PM 75.2 °F 46.4 °F 36% 29.84 in 10.0 mi WSW 12.7 mph - N/A   Scattered Clouds
4:47 PM 75.2 °F 46.4 °F 36% 29.83 in 10.0 mi WSW 11.5 mph - N/A   Scattered Clouds
5:35 PM 71.6 °F 46.4 °F 41% 29.83 in 10.0 mi WSW 11.5 mph - N/A   Scattered Clouds
6:50 PM 68.0 °F 48.2 °F 49% 29.85 in 10.0 mi WSW 17.3 mph - N/A   Scattered Clouds
7:50 PM 62.6 °F 48.2 °F 59% 29.87 in 10.0 mi WSW 10.4 mph - N/A   Scattered Clouds
8:50 PM 60.8 °F 48.2 °F 63% 29.89 in 10.0 mi WSW 11.5 mph - N/A   Scattered Clouds
9:40 PM 60.1 °F 48.7 °F 66% 29.89 in 10.0 mi WSW 5.8 mph - N/A   Overcast
10:00 PM 60.4 °F 49.1 °F 66% 29.89 in 10.0 mi WSW 6.9 mph - N/A   Overcast
10:20 PM 60.3 °F 48.7 °F 66% 29.89 in 10.0 mi WSW 5.8 mph - N/A   Overcast
10:40 PM 60.1 °F 48.6 °F 66% 29.89 in 10.0 mi WSW 5.8 mph - N/A   Overcast
11:00 PM 59.9 °F 48.9 °F 67% 29.89 in 10.0 mi WSW 5.8 mph - N/A   Overcast
11:20 PM 59.9 °F 49.3 °F 68% 29.89 in 10.0 mi WSW 4.6 mph - N/A   Overcast
11:40 PM 59.9 °F 49.5 °F 68% 29.89 in 10.0 mi SW 4.6 mph - N/A   Overcast